STARLINK-36442, 67413

Orbit data source: Space-Track

STARLINK-36442, 67413 is a payload satellite owned by SpaceX/Seattle (US) in LEO that was launched on Mon, 12 Jan 2026 UTC via an FALCON 9 launch vehicle from the Air Force Eastern Test Range (AFETR). Payload-class satellites include a variety of spacecraft equipped with specific instruments for various scientific and technological missions. These include communications satellites like Starlink; space stations such as the ISS; scientific satellites like the Hubble; Earth observation satellites from companies like Planet Labs, Umbra, and HawkEye 360; GPS; miniature CubeSats for education and research; and military/defense satellites.

Loading next visibility...
Identifier
67413, 2026-005K
Orbit
LEO
Country
Flag of USUS
Related business
Manufacturer
SpaceX/Seattle
Mission
Operational Commercial Communications
Bus & Motor
STARLINK V2MO, Unknown motor
Mass
575 kg wet, ~530 kg dry
Launch date (UTC)
2026-01-12 (5 months ago)
Launch vehicle
FALCON 9
Launch site
Air Force Eastern Test Range (AFETR)
Object type
Payload
Rocket body
Debris
Shape & HBR
Box + 2 Pan, 17.7 m
Radar Cross Section
36.964 m², Large (>1 m²)

Expand to show TLE details & history
Last TLE update: 21 hours ago

TLE from 21 hours ago
0 STARLINK-36442
1 67413U 26005K   26170.98145988  .00016439  00000-0  60508-3 0  9997
2 67413  43.0032  20.0401 0001435 313.7110  46.3623 15.27607614 24347
Epoch: 2026-06-19T23:33Z
TLE epoch observation values (Epoch: 2026-06-19T23:33:18.133Z)
Latitude
-0°
Longitude
118.5119°
Altitude
482.063 km
Speed
7.627 km/s
True Right ascension
01h 20m 09s
True Declination
0° 00' 00"
Sunlit
Object was in daylight at epoch
Visualization orbit readout
Latitude
Unknown
Longitude
Unknown
Altitude
Unknown
Speed
Unknown
Apparent Right ascension
Unknown
Apparent Declination
Unknown
Sunlit
N/A
Visualization observer readout
Local Sidereal Time
07:11:59
Azimuth
Unknown
Elevation
Unknown
Doppler factor
Unknown
Orbital elements
Apogee altitude
485.896 km
Perigee altitude
483.926 km
Semi-major axis
6,863.048 km
Eccentricity
0.00014
Inclination
43.0032°
RAAN
20.0401°
Arg. of periapsis
313.711°
True anomaly
46.3742°
Mean anomaly
46.3623°
Eccentric anomaly
46.36825°
Mean motion
3.8174 °/min
Orbital period
94.31 mins
BSTAR
0.00060508
Loading maneuver chart data...
Computing Atmospheric mass density...
Loading historical data...
Loading historical data...
Loading historical data...
Loading historical data...
Loading historical data...
Loading historical data...
Loading historical data...

Documentation

Showing up to 5 results
|